TimeCST,TemperatureF,Dew PointF,Humidity,Sea Level PressureIn,VisibilityMPH,Wind Direction,Wind SpeedMPH,Gust SpeedMPH,PrecipitationIn,Events,Conditions,WindDirDegrees,DateUTC
12:42 AM,51.8,50.0,94,30.00,10.0,WNW,4.6,-,0.00,,Overcast,300,2012-02-04 06:42:00
12:50 AM,51.8,50.0,94,30.00,10.0,WNW,4.6,-,0.00,,Overcast,290,2012-02-04 06:50:00
12:53 AM,51.1,50.0,96,30.00,9.0,WNW,4.6,-,0.00,,Overcast,290,2012-02-04 06:53:00
1:53 AM,51.1,48.9,92,30.00,10.0,NW,4.6,-,0.00,,Overcast,310,2012-02-04 07:53:00
2:30 AM,50.0,48.2,94,30.02,10.0,Calm,Calm,-,N/A,,Overcast,0,2012-02-04 08:30:00
2:41 AM,51.8,48.2,88,30.02,10.0,Calm,Calm,-,N/A,,Overcast,0,2012-02-04 08:41:00
2:53 AM,51.1,48.9,92,30.02,10.0,WNW,3.5,-,N/A,,Overcast,300,2012-02-04 08:53:00
3:21 AM,50.0,48.2,94,30.03,10.0,West,17.3,20.7,N/A,,Overcast,270,2012-02-04 09:21:00
3:53 AM,48.9,46.9,93,30.04,10.0,West,13.8,-,N/A,,Overcast,270,2012-02-04 09:53:00
4:53 AM,46.0,43.0,89,30.07,10.0,WSW,12.7,-,N/A,,Overcast,250,2012-02-04 10:53:00
5:10 AM,44.6,42.8,93,30.08,10.0,West,13.8,-,N/A,,Overcast,260,2012-02-04 11:10:00
5:53 AM,44.1,41.0,89,30.08,10.0,West,12.7,-,N/A,,Overcast,270,2012-02-04 11:53:00
6:53 AM,43.0,39.9,89,30.09,10.0,West,9.2,-,N/A,,Overcast,280,2012-02-04 12:53:00
7:53 AM,43.0,39.0,86,30.14,10.0,West,9.2,-,N/A,,Overcast,270,2012-02-04 13:53:00
8:53 AM,43.0,39.0,86,30.17,10.0,West,9.2,-,N/A,,Overcast,270,2012-02-04 14:53:00
9:53 AM,44.1,39.9,85,30.18,10.0,WNW,9.2,-,N/A,,Overcast,290,2012-02-04 15:53:00
10:45 AM,44.6,39.2,81,30.20,10.0,West,12.7,-,N/A,,Overcast,280,2012-02-04 16:45:00
10:53 AM,46.0,41.0,83,30.20,10.0,West,12.7,-,N/A,,Overcast,280,2012-02-04 16:53:00
11:53 AM,46.0,39.0,76,30.20,10.0,WNW,18.4,25.3,N/A,,Overcast,290,2012-02-04 17:53:00
12:12 PM,46.4,37.4,71,30.20,10.0,WNW,15.0,-,N/A,,Overcast,300,2012-02-04 18:12:00
12:36 PM,44.6,37.4,76,30.20,10.0,NW,16.1,21.9,N/A,,Overcast,310,2012-02-04 18:36:00
12:53 PM,46.0,37.0,71,30.20,10.0,West,13.8,-,N/A,,Overcast,280,2012-02-04 18:53:00
1:06 PM,46.4,37.4,71,30.19,10.0,WNW,13.8,-,N/A,,Overcast,290,2012-02-04 19:06:00
1:13 PM,44.6,37.4,76,30.20,10.0,NW,18.4,26.5,N/A,,Overcast,310,2012-02-04 19:13:00
1:53 PM,44.1,36.0,73,30.20,10.0,WNW,12.7,-,N/A,,Overcast,290,2012-02-04 19:53:00
2:53 PM,44.1,35.1,71,30.21,10.0,WNW,17.3,23.0,N/A,,Overcast,300,2012-02-04 20:53:00
3:53 PM,43.0,34.0,71,30.22,10.0,NW,16.1,26.5,N/A,,Overcast,320,2012-02-04 21:53:00
4:53 PM,43.0,34.0,71,30.24,10.0,NW,10.4,-,N/A,,Overcast,310,2012-02-04 22:53:00
5:53 PM,42.1,32.0,67,30.26,10.0,NW,16.1,25.3,N/A,,Overcast,320,2012-02-04 23:53:00
6:09 PM,42.8,32.0,66,30.26,10.0,NNW,15.0,-,N/A,,Overcast,330,2012-02-05 00:09:00
6:53 PM,42.1,32.0,67,30.28,10.0,NW,15.0,-,N/A,,Overcast,310,2012-02-05 00:53:00
7:19 PM,41.0,30.2,65,30.28,10.0,NNW,13.8,23.0,N/A,,Overcast,330,2012-02-05 01:19:00
7:53 PM,41.0,32.0,70,30.31,10.0,NNW,15.0,26.5,N/A,,Overcast,330,2012-02-05 01:53:00
8:53 PM,39.9,30.9,70,30.32,10.0,NNW,13.8,-,N/A,,Overcast,340,2012-02-05 02:53:00
9:53 PM,39.9,32.0,73,30.32,10.0,NW,16.1,23.0,N/A,,Overcast,310,2012-02-05 03:53:00
10:53 PM,39.0,30.9,73,30.33,10.0,NNW,15.0,-,N/A,,Overcast,330,2012-02-05 04:53:00
11:53 PM,37.9,30.0,73,30.34,10.0,NW,13.8,-,N/A,,Overcast,310,2012-02-05 05:53:00